Regional Weather Roundup
Issued by NWS

Home | Current Version | Previous Version | Text Only | Print | Product List | Glossary Off
Versions: 1 2 3 4 5 6 7 8 9 10 11 12 13 14 15 16 17 18 19 20 21 22 23 24 25 26 27 28 29 30 31 32 33 34 35 36 37 38 39 40 41 42 43 44 45 46 47 48 49 50

000
ASUS43 KFSD 011810
RWRSD

WEATHER ROUNDUP FOR SOUTH DAKOTA
NATIONAL WEATHER SERVICE SIOUX FALLS SD
100 PM CDT MON JUN 01 2015

NOTE: "FAIR" INDICATES FEW OR NO CLOUDS BELOW 12,000 FEET WITH NO
SIGNIFICANT WEATHER AND/OR OBSTRUCTIONS TO VISIBILITY.


SDZ001>005-009-010-012>017-011900-
NORTHWEST AND NORTH CENTRAL SOUTH DAKOTA

CITY           SKY/WX    TMP DP  RH WIND       PRES   REMARKS
BUFFALO          N/A     78  59  51 S12       29.84S
FAITH            N/A     75  59  57 SE16      29.92S
MOBRIDGE       SUNNY     76  58  53 S16       29.92S
$$

SDZ012>016-024>037-041>051-057-063-072>074-011900-
SOUTHWEST AND SOUTH CENTRAL SOUTH DAKOTA

CITY           SKY/WX    TMP DP  RH WIND       PRES   REMARKS
RAPID CTY ARPT MOSUNNY   80  61  52 S15       29.92F
PIERRE         SUNNY     77  61  57 SE17      29.93S
CUSTER         PTSUNNY   75  46  35 S7G16     30.06S
ELLSWORTH AFB  PTSUNNY   79  62  55 S21       29.91F
PHILIP         SUNNY     81  63  54 SE9       29.91F
PINE RIDGE     SUNNY     81  59  47 S16       29.96F
SPEARFISH      LGT RAIN  77  59  53 E8        29.95F
WINNER         FAIR      80  58  46 S20G26    29.98S
$$

SDZ004>011-016>023-039-040-011900-
NORTHEAST SOUTH DAKOTA

CITY           SKY/WX    TMP DP  RH WIND       PRES   REMARKS
ABERDEEN       SUNNY     75  54  47 S22G30    30.00S
WATERTOWN      SUNNY     71  49  45 S20G29    30.06F
BROOKINGS      SUNNY     70  48  46 S20G25    30.10F
SISSETON         N/A     69  47  45 S22       30.06S
$$

SDZ017-020-022-023-036>040-048>070-011900-
SOUTHEAST SOUTH DAKOTA

CITY           SKY/WX    TMP DP  RH WIND       PRES   REMARKS
SIOUX FALLS    MOSUNNY   71  50  47 S21G28    30.10F
HURON          MOSUNNY   73  54  51 S18G29    30.02R
CHAMBERLAIN    SUNNY     74  60  61 S20G26    29.98F
MITCHELL       SUNNY     76  54  46 S20G30    30.03F
YANKTON        SUNNY     75  50  41 S17       30.06F
$$

ABBREVIATIONS USED IN REMARKS
   TC - TEMPERATURE IN CELSIUS
  WCI - WIND CHILL INDEX
   HX - HEAT INDEX
  VSB - VISIBILITY



USA.gov is the U.S. government's official web portal to all federal, state and local government web resources and services.